星链-31143 (STARLINK-31143 )

导读

STARLINK-31143是美国太空探索技术公司(SpaceX)星链(Starlink)星座的卫星,于2024年1月14日发射。星链项目旨在构建全球卫星互联网星座,该卫星入轨后,将补充增强星链星座的全球网络覆盖,为不同地区提供宽带互联网接入服务,进一步推进SpaceX全球卫星互联网组网进程。

基本信息
目录编号:
58770
目录名称:
STARLINK-31143
国际标识:
2024-011F
轨道中心:
EARTH
卫星名称:
星链-31143
卫星全名:
星链-31143 (STARLINK-31143 )
卫星状态:
在轨 (已飞行971 天)
发射日期:
2024-01-14 UTC
国别 :
美国 (US)
星等 :
--
轨道信息
数据来源 国际轨道数据 AOE轨道数据
星历时间 2026-09-10T23:20:00+0800
11小时前
查看轨道信息
2026-09-10T22:00:00+0800
13小时前
查看轨道信息
半长轴 6840.864km 6840.895km
偏心率 0.0001238 0.000217
轨道倾角 53.156° 53.163°
近地点辐角 99.300° 351.218°
升交点赤经 232.000° 232.273°
平近点角 260.814° 61.836°
近地点 461.88km 461.273km
远地点 463.574km 464.243km
周期 93.848分钟 93.849分钟
每日圈数 15.343921 15.343817
详细信息
固有亮度:
5
最大亮度:
0.3
卫星平台:
Starlink v2.0 mini
覆盖范围:
全球
运营商:
太空探索技术公司
运营商所在国:
美国
制造商(研发单位):
太空探索技术公司
制造商所在国:
美国
使用方式:
暂无
卫星简介
星链(Starlink)计划是由太空探索技术公司(SpaceX)提出的一个巨型低轨卫星互联网星座项目,计划在2019年至2024年间在太空搭建由约1.2万颗卫星组成的“星链”网络,其中1584颗将部署在地球上空550千米处的近地轨道,并从2020年开始工作。该卫星仍在工作。
2D轨道图
3D轨道图
轨道高度分析图
轨道倾角分析图
轨道综合分析图
查看轨道综合分析图
交会数据列表
事件ID 空间交会对象 最接近时刻(TCA) 交会距离 交会风险概率(CRP) 交会风险指数(CRI) 操作
CDM_260913-050905-877006-371921
2026-09-13T
05:09:57+0000
0.560 km
远距离
1.370497E-4 高风险 0.78
CDM_260912-111105-877006-371923
2026-09-12T
11:11:22+0000
1.228 km
极远距离
1.14214E-5 中风险 0.56
CDM_260912-064905-877006-871021
2026-09-12T
06:49:51+0000
1.055 km
极远距离
6.049532E-6 低风险 0.51
CDM_260912-202304-579405-877023
2026-09-12T
20:23:49+0000
1.587 km
极远距离
5.568053E-6 低风险 0.5
CDM_260912-042905-877006-871021
2026-09-12T
04:29:10+0000
1.096 km
极远距离
5.302732E-6 低风险 0.49
CDM_260912-124505-877006-371921
2026-09-12T
12:45:10+0000
1.824 km
极远距离
3.1956E-6 低风险 0.45
CDM_260913-033605-877006-371921
2026-09-13T
03:36:10+0000
2.736 km
极远距离
1.337308E-6 低风险 0.38
CDM_260912-060205-877006-871021
2026-09-12T
06:02:57+0000
1.996 km
极远距离
9.136898E-7 极低风险 0.34
CDM_260912-082305-877006-871021
2026-09-12T
08:23:38+0000
2.232 km
极远距离
7.284449E-7 极低风险 0.32
与全量物体交会距离演化趋势
与全量物体交会风险概率演化趋势